x

Yucatan Basin - 120 Nm Ese Of Cozumel, Mx (42056) Wave Buoy

2:40am - Sat 25th Feb 2017 All times are CST. -6 hours from GMT.

  • Sig Wave height 1.3ft
  • Swell Direction
  • Average Period 5s
  • Wind
    4mph, 7mph gusts
  • Sea Temp 81°f
  • Air Temp 78°f
  • Sea Pressure 1010.5mb
  •  Yucatan Basin - 120 Nm Ese Of Cozumel, Mx
  •  Yucatan Basin - 120 Nm Ese Of Cozumel, Mx

More Historic Weather Station data

Upgrade to MSW Pro to gain access to the past 30 days of data for over 8000 Wavebouys and Weather Stations around the globe.

Join Pro

Comparision Forecast

View Surf forecast
   
Sat 02/25 2:40am 1.3ft  -  5s 4 7 mph 1010.5mb 81f 78f
2:30am  -   -   -  4 7 mph 1010.5mb 81f 77f
2:20am  -   -   -  4 7 mph 1010.5mb 81f 78f
2:10am  -   -   -  7 9 mph 1010.5mb 81f 78f
2:00am  -   -   -  7 9 mph 1010.5mb 81f 78f
1:50am 1.3ft 7s 5s 4 9 mph 1010.4mb 81f 78f
1:40am  -   -   -  7 9 mph 1010.5mb 81f 78f
1:30am  -   -   -  7 9 mph 1010.5mb 81f 78f
1:20am  -   -   -  4 9 mph 1010.5mb 81f 78f
1:10am  -   -   -  7 9 mph 1010.6mb 81f 78f
1:00am  -   -   -  4 7 mph 1010.8mb 81f 78f
12:50am 1.3ft 7s 5s 7 9 mph 1010.8mb 81f 78f
12:40am  -   -   -  7 9 mph 1010.9mb 81f 78f
12:30am  -   -   -  7 9 mph 1011mb 81f 78f
12:20am  -   -   -  7 9 mph 1011mb 81f 78f
12:10am  -   -   -  7 9 mph 1011mb 81f 78f
12:00am  -   -   -  7 9 mph 1011.1mb 81f 78f
Fri 02/24 11:50pm 1.3ft 7s 5s 7 9 mph 1011.1mb 81f 78f
11:40pm 1.3ft  -  5s 7 11 mph 1011mb 81f 78f
11:30pm  -   -   -  7 9 mph 1011mb 81f 78f
11:20pm  -   -   -  7 9 mph 1011mb 81f 78f
11:10pm  -   -   -  7 11 mph 1011.1mb 81f 78f
11:00pm  -   -   -  7 9 mph 1011mb 81f 78f
10:50pm 1.3ft 8s 5s 7 11 mph 1011.1mb 81f 78f
10:40pm 1.3ft  -  5s 7 11 mph 1011mb 81f 78f
10:30pm  -   -   -  9 11 mph 1011mb 81f 78f
10:20pm  -   -   -  7 9 mph 1011mb 81f 78f
10:10pm  -   -   -  7 16 mph 1011.1mb - 78f
10:00pm  -   -   -  9 11 mph 1011mb 81f 78f
9:50pm 1.3ft 8s 5s 9 11 mph 1011mb 81f 78f
9:40pm  -   -   -  9 11 mph 1011mb 81f 78f
9:30pm  -   -   -  9 11 mph 1010.9mb 81f 78f
9:20pm  -   -   -  7 11 mph 1010.9mb 81f 78f
9:10pm  -   -   -  7 11 mph 1010.9mb - 78f
9:00pm  -   -   -  7 11 mph 1010.9mb 81f 78f
8:50pm 1.6ft 8s 6s 9 11 mph 1010.8mb 81f 78f
8:40pm  -   -   -  7 9 mph 1010.6mb 81f 78f
8:30pm  -   -   -  9 11 mph 1010.5mb 81f 78f
8:20pm  -   -   -  9 11 mph 1010.5mb 81f 78f
8:10pm  -   -   -  7 9 mph 1010.3mb 81f 78f
8:00pm  -   -   -  7 9 mph 1010.1mb 81f 78f
7:50pm 1.6ft 8s 6s 7 9 mph 1010mb 81f 78f
7:40pm  -   -   -  7 11 mph 1010mb 81f 78f
7:30pm  -   -   -  9 11 mph 1009.9mb 81f 78f
7:20pm  -   -   -  7 11 mph 1009.8mb 81f 78f
7:10pm  -   -   -  7 11 mph 1009.6mb 81f 78f
7:00pm  -   -   -  7 11 mph 1009.5mb 81f 78f
6:50pm 1.6ft 7s 6s 9 11 mph 1009.4mb 81f 78f
6:40pm 1.6ft  -  6s 9 13 mph 1009.3mb 81f 78f
6:30pm  -   -   -  9 11 mph 1009.1mb 81f 78f
6:20pm  -   -   -  9 11 mph 1009mb 81f 78f
6:10pm  -   -   -  7 11 mph 1009mb 81f 78f
6:00pm  -   -   -  7 11 mph 1008.9mb 81f 78f
5:50pm 2ft 7s 6s 7 9 mph 1008.6mb 81f 78f
5:40pm 2ft  -  6s 7 11 mph 1008.6mb 81f 78f
5:30pm  -   -   -  9 11 mph 1008.6mb 82f 78f
5:20pm  -   -   -  7 11 mph 1008.6mb 82f 79f
5:10pm  -   -   -  7 11 mph 1008.6mb 82f 79f
5:00pm  -   -   -  7 11 mph 1008.6mb 82f 79f
4:50pm 2ft 8s 6s 7 11 mph 1008.5mb 82f 79f
4:40pm  -   -   -  4 9 mph 1008.5mb 82f 79f
4:30pm  -   -   -  7 9 mph 1008.5mb 82f 79f
4:20pm  -   -   -  7 9 mph 1008.5mb 81f 79f
4:10pm  -   -   -  4 7 mph 1008.5mb 81f 79f
4:00pm  -   -   -  7 9 mph 1008.5mb 81f 79f
3:50pm 2.5ft 8s 6s 7 9 mph 1008.5mb 81f 79f
3:40pm  -   -   -  4 7 mph 1008.5mb 81f 79f
3:30pm  -   -   -  4 9 mph 1008.5mb 81f 79f
3:20pm  -   -   -  4 9 mph 1008.5mb 82f 79f
3:10pm  -   -   -  4 7 mph 1008.5mb 81f 79f
3:00pm  -   -   -  4 9 mph 1008.5mb 81f 79f
2:50pm  -   -   -  2 4 mph 1008.6mb 81f 79f
2:40pm  -   -   -  2 7 mph 1008.8mb 81f 79f
2:30pm  -   -   -   -  mph 1008.8mb 81f -
2:20pm  -   -   -  4 7 mph 1008.9mb 81f 79f
2:10pm  -   -   -  4 7 mph 1009mb 81f 79f
2:00pm  -   -   -  4
mph
1009.1mb 81f 79f
1:50pm 2.5ft 7s 6s 4 7 mph 1009.1mb 81f 79f
1:40pm 2.5ft  -  6s 4 7 mph 1009.3mb 81f 79f
1:30pm  -   -   -  4 7 mph 1009.5mb 81f 79f
1:20pm  -   -   -  2 4 mph 1009.5mb 81f 80f
1:10pm  -   -   -   -  4 mph 1009.8mb 81f 79f
1:00pm  -   -   -  2 4 mph 1009.9mb 81f 79f
12:50pm 2.5ft 7s 6s 2
mph
1010mb 81f 78f
12:40pm 2.5ft  -  6s  -  2 mph 1010.1mb 81f 78f
12:30pm  -   -   -   -  2 mph 1010.3mb 81f 78f
12:20pm  -   -   -   -  2 mph 1010.3mb 81f 78f
12:10pm  -   -   -  2 4 mph 1010.5mb 81f 78f
12:00pm  -   -   -  2 4 mph 1010.5mb 81f 78f
11:50am 2.5ft 7s 6s 2 7 mph 1010.8mb 81f 78f
11:40am 2.5ft  -  6s 2 4 mph 1010.9mb 81f 78f
11:30am  -   -   -  2 4 mph 1010.9mb 81f 78f
11:20am  -   -   -  2 4 mph 1011mb 81f 79f
11:10am  -   -   -  2 4 mph 1011.3mb 81f 78f
11:00am  -   -   -  2 4 mph 1011.4mb 81f 78f
10:50am 2.5ft 8s 6s 2 4 mph 1011.4mb 81f 78f
10:40am 2.5ft  -  6s 2 4 mph 1011.4mb 81f 78f
10:30am  -   -   -  2 4 mph 1011.5mb 81f 78f
10:20am  -   -   -  2 4 mph 1011.5mb 81f 78f
10:10am  -   -   -  4
mph
1011.6mb 81f 78f
10:00am  -   -   -  4 7 mph 1011.6mb 81f 78f
9:50am 2.5ft 8s 6s 2 4 mph 1011.6mb 81f 78f
9:40am 2.5ft  -  6s 2 7 mph 1011.6mb 81f 78f
9:30am  -   -   -  2 4 mph 1011.6mb 81f 79f
9:20am  -   -   -  2
mph
1011.6mb 81f 78f
9:10am  -   -   -  2 7 mph 1011.6mb 81f 78f
9:00am  -   -   -   -  4 mph 1011.6mb 81f 78f
8:50am 2.5ft 8s 6s 2 4 mph 1011.5mb 81f 78f
8:40am 2.5ft  -  6s 2 4 mph 1011.5mb 81f 78f
8:30am  -   -   -  2 4 mph 1011.4mb 81f 78f
8:20am  -   -   -  2 4 mph 1011.1mb 81f 78f
8:10am  -   -   -  4 7 mph 1011mb 81f 78f
8:00am  -   -   -  4 7 mph 1011mb 81f 77f
7:50am 2.5ft 8s 5s 4 7 mph 1010.9mb 81f 78f
7:40am  -   -   -  4 7 mph 1010.9mb 81f 77f
7:30am  -   -   -  4 7 mph 1010.8mb 81f 77f
7:20am  -   -   -  4 9 mph 1010.8mb 81f 77f
7:10am  -   -   -  7
mph
1010.6mb 81f 77f
7:00am  -   -   -  4 9 mph 1010.5mb 81f 77f
6:50am 3ft 8s 5s 4 9 mph 1010.4mb 81f 77f
6:40am 3ft  -  5s 4 9 mph 1010.4mb 81f 77f
6:30am  -   -   -  4 7 mph 1010.1mb 81f 77f
6:20am  -   -   -  4 7 mph 1010.1mb 81f 77f
6:10am  -   -   -  4 9 mph 1010mb 81f 77f
6:00am  -   -   -  4 7 mph 1010mb 81f 77f
5:50am 3ft 8s 5s 2 7 mph 1009.9mb 81f 77f
5:40am 3ft  -  5s 4 7 mph 1009.8mb 81f 77f
5:30am  -   -   -  4 7 mph 1009.5mb 81f 77f
5:20am  -   -   -  4 7 mph 1009.5mb 81f 77f
5:10am  -   -   -  4 7 mph 1009.3mb 81f 77f
5:00am  -   -   -  4 7 mph 1009.1mb 81f 77f
4:50am 3ft 8s 5s 4 7 mph 1009mb 81f 77f
4:40am 3ft  -  5s 4 7 mph 1009mb 81f 77f
4:30am  -   -   -  2 7 mph 1008.8mb 81f 77f
4:20am  -   -   -  4 7 mph 1008.8mb 81f 77f
4:10am  -   -   -  2 7 mph 1008.6mb 81f 76f
4:00am  -   -   -  4 7 mph 1008.6mb 81f 76f
3:50am 3.5ft 8s 5s 2 4 mph 1008.5mb 81f 76f
3:40am 3.5ft  -  5s 4 7 mph 1008.5mb 81f 76f
3:30am  -   -   -  4 7 mph 1008.5mb 81f 77f
3:20am  -   -   -  4 7 mph 1008.6mb 81f 77f
3:10am  -   -   -  4 9 mph 1008.6mb 81f 76f
3:00am  -   -   -  4 7 mph 1008.6mb 81f 77f
2:50am 3.5ft 8s 5s 4 7 mph 1008.6mb 81f 77f
2:40am 3.5ft  -  5s 2 4 mph 1008.5mb 81f 76f
2:30am  -   -   -  4 7 mph 1008.6mb 81f 76f
2:20am  -   -   -  2 4 mph 1008.6mb 81f 76f
2:10am  -   -   -  2 4 mph 1008.6mb 81f 76f
2:00am  -   -   -  4 7 mph 1008.8mb 81f 77f
1:50am 3.5ft 8s 5s 4 7 mph 1008.8mb 81f 77f
1:40am  -   -   -  4 7 mph 1009mb 81f 77f
1:30am  -   -   -  4 7 mph 1009mb 81f 77f
1:20am  -   -   -  4 7 mph 1009mb 81f 77f
1:10am  -   -   -  4 7 mph 1009mb 81f 77f
1:00am  -   -   -  4 7 mph 1009.1mb 81f 77f
12:50am 3.5ft 8s 5s 4 7 mph 1009.3mb 81f 77f
12:40am 3.5ft  -  5s 4 9 mph 1009.3mb 81f 77f
12:30am  -   -   -  4 7 mph 1009.3mb 81f 77f
12:20am  -   -   -  4 9 mph 1009.4mb 81f 77f
12:10am  -   -   -  2 7 mph 1009.4mb 81f 77f
12:00am  -   -   -  4 7 mph 1009.4mb 81f 77f
Thu 02/23 11:50pm 4ft 7s 5s 2 7 mph 1009.4mb 81f 77f
11:40pm  -   -   -  2 7 mph 1009.5mb 81f 77f
11:30pm  -   -   -  4 7 mph 1009.5mb 81f 77f
11:20pm  -   -   -  4 7 mph 1009.5mb 81f 77f
11:10pm  -   -   -  4 9 mph 1009.5mb 81f 77f
11:00pm  -   -   -  4 7 mph 1009.6mb 81f 77f
10:50pm 4ft 6s 5s 4 7 mph 1009.6mb 81f 77f
10:40pm 4ft  -  5s 7 9 mph 1009.6mb 81f 77f
10:30pm  -   -   -  7 9 mph 1009.6mb 81f 77f
10:20pm  -   -   -  7 9 mph 1009.6mb 81f 77f
10:10pm  -   -   -  7 11 mph 1009.6mb 81f 77f
10:00pm  -   -   -  7 9 mph 1009.6mb 81f 77f
9:50pm 3.5ft 6s 5s 7 9 mph 1009.8mb 81f 77f
9:40pm 3.5ft  -  5s 7 9 mph 1009.8mb 81f 77f
9:30pm  -   -   -  7 9 mph 1009.8mb 81f 77f
9:20pm  -   -   -  4 7 mph 1009.8mb 81f 77f
9:10pm  -   -   -  4 7 mph 1009.8mb 81f 77f
9:00pm  -   -   -  4 9 mph 1009.5mb 81f 77f
8:50pm 3.5ft 8s 5s 4 7 mph 1009.5mb 81f 77f
8:40pm 3.5ft  -  5s 4 7 mph 1009.5mb 81f 77f
8:30pm  -   -   -  4 7 mph 1009.4mb 81f 77f
8:20pm  -   -   -  4 7 mph 1009.3mb 81f 77f
8:10pm  -   -   -  4 7 mph 1009mb 81f 77f
8:00pm  -   -   -  4 7 mph 1009mb 81f 77f
7:50pm 4ft 6s 5s 7 11 mph 1008.9mb 81f 77f
7:40pm  -   -   -  7 9 mph 1008.8mb 81f 77f
7:20pm  -   -   -  9 11 mph 1008.4mb 81f 77f
7:10pm  -   -   -  9 13 mph 1008.4mb 81f 77f
7:00pm  -   -   -  9 11 mph 1008.1mb - 77f
6:50pm 4.5ft 8s 5s 9 13 mph 1008.1mb 81f 77f
6:40pm 4.5ft  -  5s 9 11 mph 1008mb 81f 77f
6:30pm  -   -   -  9 13 mph 1008mb 81f 77f
6:20pm  -   -   -  9 13 mph 1007.9mb 81f 77f
6:10pm  -   -   -  11 13 mph 1007.8mb 81f 77f
6:00pm  -   -   -  11 16 mph 1007.6mb 81f 77f
5:50pm 4.5ft 6s 5s 11 13 mph 1007.5mb 81f 77f
5:40pm 4.5ft  -  5s 11 13 mph 1007.5mb 81f 77f
5:30pm  -   -   -  9 13 mph 1007.4mb 81f 77f
5:20pm  -   -   -  11 13 mph 1007.4mb 81f 77f
5:10pm  -   -   -  11 13 mph 1007.4mb 81f 77f
5:00pm  -   -   -  11 16 mph 1007.4mb 81f 77f
4:50pm 5ft 6s 5s 11 16 mph 1007.4mb - -
4:40pm 5ft  -  5s 13 16 mph 1007.3mb 81f 77f
4:30pm  -   -   -  13 16 mph 1007.3mb 81f 77f
4:20pm  -   -   -  13 18 mph 1007.1mb 81f 77f
4:10pm  -   -   -  13 18 mph 1007.1mb 81f 77f
4:00pm  -   -   -  13 18 mph 1007.1mb 81f 77f
3:50pm 5ft 6s 5s 13 18 mph 1007.1mb 81f 77f
3:40pm 5ft  -  5s 16 20 mph 1007.1mb 81f 77f
3:30pm  -   -   -  16 20 mph 1007mb 81f 77f
3:20pm  -   -   -  16 20 mph 1007mb 81f 77f
3:10pm  -   -   -  16 20 mph 1007mb 81f 77f
3:00pm  -   -   -  16 20 mph 1007mb 81f 77f
2:50pm 6ft 8s 5s 16 20 mph 1007mb 81f 77f
2:40pm 6ft  -  5s 18 22 mph 1007mb 81f 77f
2:30pm  -   -   -  18 20 mph 1007.1mb 81f 77f
2:20pm  -   -   -  18 22 mph 1007.3mb 81f 77f
2:10pm  -   -   -  16 22 mph 1007.3mb 81f 77f
2:00pm  -   -   -  18 22 mph 1007.3mb 81f 77f
1:50pm 6ft 7s 5s 16 22 mph 1007.4mb 81f 77f
1:40pm  -   -   -  18 22 mph 1007.5mb 81f 77f
1:30pm  -   -   -  18 20 mph 1007.5mb 81f 77f
1:20pm  -   -   -  18 22 mph 1007.5mb 81f 77f
1:10pm  -   -   -  18 22 mph 1007.6mb 81f 77f
1:00pm  -   -   -  18 22 mph 1007.8mb 81f 77f
12:50pm 6ft 6s 5s 18 25 mph 1007.9mb 81f 77f
12:40pm  -   -   -  18 25 mph 1008mb 81f 77f
12:30pm  -   -   -  20 25 mph 1008mb 81f 77f
12:20pm  -   -   -  20 25 mph 1008.3mb 81f 77f
12:10pm  -   -   -  20 25 mph 1008.4mb 81f 77f
12:00pm  -   -   -  20 22 mph 1008.5mb 81f 77f
11:50am 6ft 8s 6s 20 25 mph 1008.6mb 81f 77f
11:40am 6ft  -  6s 18 22 mph 1008.9mb 81f 77f
11:30am  -   -   -  20 25 mph 1009mb 81f 77f
11:20am  -   -   -  20 25 mph 1009mb 81f 77f
11:10am  -   -   -  20 25 mph 1009.1mb 81f 77f
11:00am  -   -   -  18 22 mph 1009.1mb 81f 77f
10:50am 6ft 9s 6s 20 25 mph 1009.3mb 81f 77f
10:40am 6ft  -  6s 20 25 mph 1009.3mb 81f 77f
10:30am  -   -   -  18 22 mph 1009.5mb 81f 77f
10:20am  -   -   -  20 22 mph 1009.5mb 81f 77f
10:10am  -   -   -  18 25 mph 1009.6mb 81f 77f
10:00am  -   -   -  18 25 mph 1009.8mb 81f 77f
9:50am 6.5ft 8s 6s 18 22 mph 1009.8mb 81f 77f
9:40am 6.5ft  -  6s 20 25 mph 1009.8mb - 77f
9:30am  -   -   -  18 22 mph 1009.8mb 81f 77f
9:20am  -   -   -  18 25 mph 1009.8mb 81f 77f
9:10am  -   -   -  18 25 mph 1009.8mb 81f 77f
9:00am  -   -   -  20 25 mph 1009.6mb 81f 77f
8:50am 7ft 9s 6s 20 25 mph 1009.5mb 81f 77f
8:40am 7ft  -  6s 20 25 mph 1009.5mb 81f 77f
8:30am  -   -   -  20 25 mph 1009.5mb 81f 77f
8:20am  -   -   -  18 25 mph 1009.5mb 81f 77f
8:10am  -   -   -  20 22 mph 1009.4mb 81f 77f
8:00am  -   -   -  20 25 mph 1009.3mb 81f 77f
7:50am 7.5ft 9s 6s 20 27 mph 1009.1mb 81f 77f
7:40am 7.5ft  -  6s 20 25 mph 1009mb 81f 77f
7:30am  -   -   -  20 25 mph 1009mb 81f 77f
7:20am  -   -   -  20 25 mph 1009mb 81f 77f
7:10am  -   -   -  20 25 mph 1009mb 81f 77f
7:00am  -   -   -  20 27 mph 1009mb 81f 77f
6:50am 7ft 10s 6s 20 25 mph 1009mb 81f 77f
6:40am  -   -   -  20 25 mph 1009mb 81f 77f
6:30am  -   -   -  20 27 mph 1008.6mb 81f 77f
6:20am  -   -   -  20 25 mph 1008.6mb 81f 77f
6:10am  -   -   -  20 27 mph 1008.5mb 81f 77f
6:00am  -   -   -  20 27 mph 1008.5mb 81f 77f
5:50am 7ft 8s 6s 22 27 mph 1008.5mb 81f 77f
5:40am  -   -   -  20 27 mph 1008.5mb 81f 77f
5:30am  -   -   -  20 27 mph 1008.3mb 81f 77f
5:20am  -   -   -  22 27 mph 1008.1mb 81f 77f
5:10am  -   -   -  22 27 mph 1008mb 81f 77f
5:00am  -   -   -  22 29 mph 1007.9mb 81f 77f
4:50am 7.5ft 8s 6s 22 27 mph 1007.9mb 81f 77f
4:40am 7.5ft  -  6s 22 29 mph 1007.6mb 81f 77f
4:30am  -   -   -  22 27 mph 1007.5mb 81f 77f
4:20am  -   -   -  22 27 mph 1007.5mb 81f 77f
4:10am  -   -   -  22 27 mph 1007.5mb 81f 77f
4:00am  -   -   -  20 27 mph 1007.4mb 81f 77f
3:50am 9ft 8s 6s 20 27 mph 1007.4mb 81f 77f
2:50am 8ft 8s 6s 22 27 mph 1007.3mb 81f 78f
1:50am 8.5ft 8s 6s 20 27 mph 1007.6mb 81f 78f
12:50am 8ft 8s 6s 22 29 mph 1008.5mb 81f 78f
Wed 02/22 11:50pm 8ft 8s 6s 22 29 mph 1009mb 81f 78f
10:50pm 8.5ft 8s 6s 25 31 mph 1009.3mb 81f 79f
9:50pm 7ft 7s 5s 22 29 mph 1009.6mb 81f 79f
8:50pm 7.5ft 8s 6s 22 29 mph 1009.6mb 81f 79f
7:50pm 7ft 8s 6s 20 27 mph 1009.4mb 81f 78f
6:50pm 7.5ft 7s 6s 22 29 mph 1008.8mb 81f 78f
5:50pm 6.5ft 7s 5s 22 29 mph 1008mb 81f 78f
4:50pm 7.5ft 7s 6s 22 27 mph 1008.7mb 81f 78f
3:50pm 7.5ft 7s 6s 20 27 mph 1007.6mb 81f 79f
2:50pm 7ft 7s 6s 20 27 mph 1007.8mb 81f 78f
1:50pm 6.5ft 7s 5s 20 27 mph 1008.1mb 81f 78f
12:50pm 6ft 6s 5s 22 27 mph 1008.6mb 81f 77f
11:50am 5ft 5s 5s 20 25 mph 1009.3mb 81f 78f
10:50am 4.5ft 5s 4s 20 25 mph 1010.3mb 81f 78f
9:50am 3.5ft 4s 4s 20 25 mph 1010.4mb 81f 79f
8:50am 3.5ft 5s 4s 18 22 mph 1010.4mb 81f 80f
7:50am 3.5ft 6s 4s 11 16 mph 1010.3mb 81f 77f
6:50am 3.5ft 5s 4s 11 13 mph 1010mb 81f 76f
4:50am 3.5ft 5s 4s 18 22 mph 1008.9mb 81f 80f
4:40am 3.5ft  -  4s 18 22 mph 1008.8mb 81f 80f
4:30am  -   -   -  18 22 mph 1008.6mb 81f 80f
4:20am  -   -   -  18 20 mph 1008.8mb 81f 80f
4:10am  -   -   -  18 20 mph 1009mb 81f 80f
4:00am  -   -   -  18 22 mph 1008.9mb 81f 80f
3:50am 3ft 4s 4s 18 22 mph 1008.6mb 81f 80f
3:40am 3ft  -  4s 18 20 mph 1008.8mb 81f 80f
3:30am  -   -   -  18 22 mph 1008.6mb 81f 80f
3:20am  -   -   -  18 22 mph 1008.5mb 81f 80f
3:10am  -   -   -  18 22 mph 1008.5mb 81f 80f
3:00am  -   -   -  18 22 mph 1008.6mb 81f 80f
2:50am 3ft 4s 4s 18 22 mph 1008.8mb 81f 80f
2:40am 3ft  -  4s 18 22 mph 1008.8mb 81f 80f
2:30am  -   -   -  18 22 mph 1008.6mb 81f 80f
2:20am  -   -   -  18 22 mph 1008.9mb 81f 80f
2:10am  -   -   -  18 20 mph 1009mb 81f 80f
2:00am  -   -   -  18 20 mph 1009mb 81f 80f
1:50am 3ft 4s 4s 16 20 mph 1009.1mb 81f 80f
1:40am  -   -   -  16 20 mph 1009.4mb 81f 80f
1:30am  -   -   -  16 20 mph 1009.5mb 81f 80f
1:20am  -   -   -  16 20 mph 1009.6mb 81f 80f
1:10am  -   -   -  16 20 mph 1010mb 81f 80f
1:00am  -   -   -  18 22 mph 1010mb 81f 80f
12:50am 2.5ft 3s 4s 18 22 mph 1009.9mb 81f 80f
12:40am 2.5ft  -  4s 18 22 mph 1009.8mb 81f 80f
12:30am  -   -   -  20 25 mph 1009.8mb 81f 80f
12:20am  -   -   -  22 27 mph 1009.6mb 81f 80f
12:10am  -   -   -  20 25 mph 1009.8mb 81f 80f
12:00am  -   -   -  20 25 mph 1010mb 81f 80f
Tue 02/21 11:50pm 2.5ft 5s 4s 20 22 mph 1010.5mb 81f 80f
11:40pm  -   -   -  18 22 mph 1010.8mb 81f 80f
11:30pm  -   -   -  18 22 mph 1011mb 81f 80f
11:20pm  -   -   -  16 20 mph 1011.5mb 81f 80f
11:10pm  -   -   -  18 20 mph 1011.6mb - -
11:00pm  -   -   -  18 20 mph 1011.9mb 81f 80f
10:50pm 2ft 5s 4s 16 20 mph 1012mb 81f 80f
10:40pm 2ft  -  4s 16 18 mph 1012.3mb 81f 80f
10:30pm  -   -   -  13 16 mph 1012.5mb 81f 80f
10:20pm  -   -   -  13 16 mph 1012.6mb 81f 80f
10:10pm  -   -   -  11 16 mph 1012.9mb 81f 80f
10:00pm  -   -   -  13 16 mph 1013mb 81f 80f
9:50pm 2.5ft 5s 4s 13 16 mph 1013mb 81f 80f
9:40pm 2.5ft  -  4s 13 16 mph 1013.3mb 81f 80f
9:30pm  -   -   -  13 16 mph 1013.3mb 81f 80f
9:20pm  -   -   -  13 16 mph 1013mb 81f 80f
9:10pm  -   -   -  13 16 mph 1013.1mb 81f 80f
9:00pm  -   -   -  11 13 mph 1013.4mb 81f 80f
8:50pm 2ft 4s 4s 11 16 mph 1013.3mb 81f 80f
8:40pm  -   -   -  13 16 mph 1013.3mb 81f 80f
8:30pm  -   -   -  13 16 mph 1013.1mb 81f 80f
8:20pm  -   -   -  13 18 mph 1013mb 81f 80f
8:10pm  -   -   -  13 16 mph 1013.1mb 81f 80f
8:00pm  -   -   -  13 16 mph 1013.1mb 81f 80f
7:50pm 2.5ft 4s 4s 13 16 mph 1013.1mb 81f 80f
7:40pm  -   -   -  13 16 mph 1013.4mb 81f 80f
7:30pm  -   -   -  11 16 mph 1013.3mb 81f 80f
7:20pm  -   -   -  11 13 mph 1013.3mb 81f 80f
7:10pm  -   -   -  11 13 mph 1013.3mb 81f 80f
7:00pm  -   -   -  9 13 mph 1013.4mb 81f 80f
6:50pm 2.5ft 4s 4s 9 13 mph 1013.3mb 81f 80f
6:40pm 2.5ft  -  4s 9 13 mph 1013.3mb 81f 80f
6:30pm  -   -   -  9 13 mph 1013.3mb 81f 80f
6:20pm  -   -   -  11 13 mph 1013mb 81f 80f
6:10pm  -   -   -  11 13 mph 1013mb 81f 80f
6:00pm  -   -   -  11 13 mph 1013mb 81f 80f
5:50pm 2.5ft 4s 4s 11 13 mph 1013mb 81f 80f
5:40pm 2.5ft  -  4s 11 16 mph 1013mb 81f 80f
5:30pm  -   -   -  11 13 mph 1013mb 81f 80f
5:20pm  -   -   -  11 13 mph 1013mb 81f 80f
5:10pm  -   -   -  11 13 mph 1013mb 81f 80f
5:00pm  -   -   -  11 13 mph 1013mb 81f 80f
4:50pm 2.5ft 5s 4s 11 13 mph 1012.9mb 81f 80f
4:40pm  -   -   -  11 13 mph 1013mb 81f 80f
4:30pm  -   -   -  11 13 mph 1013mb 81f 80f
4:20pm  -   -   -  11 13 mph 1012.9mb 81f 80f
4:10pm  -   -   -  11 13 mph 1012.9mb - 80f
4:00pm  -   -   -  11 13 mph 1012.9mb 81f 80f
3:50pm 2.5ft 5s 4s 11 13 mph 1012.8mb 81f 80f
3:40pm  -   -   -  11 13 mph 1012.8mb 81f 80f
3:30pm  -   -   -  11 13 mph 1012.9mb 81f 80f
3:20pm  -   -   -  11 13 mph 1012.9mb 81f 80f
3:10pm  -   -   -  11 16 mph 1012.9mb 81f 80f
3:00pm  -   -   -  11 13 mph 1012.9mb 81f 80f
2:50pm 2.5ft 4s 4s 11 13 mph 1013mb 81f 80f
2:40pm 2.5ft  -  4s 13 16 mph 1013mb 81f 80f
2:30pm  -   -   -  13 16 mph 1013mb 81f 80f
2:20pm  -   -   -  13 16 mph 1013mb 81f 80f
2:10pm  -   -   -  13 16 mph 1013mb 81f 80f
2:00pm  -   -   -  13 16 mph 1013.1mb 81f 80f
1:50pm 2.5ft 4s 4s 13 16 mph 1013.4mb 81f 80f
1:40pm  -   -   -  11 16 mph 1013.6mb 81f 80f
1:30pm  -   -   -  11 13 mph 1013.9mb 81f 80f
1:20pm  -   -   -  11 13 mph 1014mb 81f 80f
1:10pm  -   -   -  11 16 mph 1014.3mb 81f 80f
1:00pm  -   -   -  13 16 mph 1014.5mb 81f 80f
12:50pm 2.5ft 4s 4s 11 16 mph 1014.6mb 81f 80f
12:40pm 2.5ft  -  4s 13 18 mph 1014.9mb 81f 80f
12:30pm  -   -   -  13 18 mph 1015mb 81f 80f
12:20pm  -   -   -  16 18 mph 1015mb 81f 80f
12:10pm  -   -   -  16 20 mph 1015.1mb 81f 80f
12:00pm  -   -   -  16 20 mph 1015.3mb 81f 80f
11:50am 2.5ft 5s 4s 16 20 mph 1015.5mb 81f 80f
11:40am 2.5ft  -  4s 18 22 mph 1015.5mb 81f 80f
11:30am  -   -   -  18 20 mph 1015.5mb 81f 80f
11:20am  -   -   -  18 22 mph 1015.5mb 81f 80f
11:10am  -   -   -  18 22 mph 1015.6mb 81f 80f
11:00am  -   -   -  20 25 mph 1015.6mb 81f 80f
10:50am 2.5ft 4s 4s 20 22 mph 1015.6mb 81f 80f
10:40am 2.5ft  -  4s 20 22 mph 1015.6mb 81f 80f
10:30am  -   -   -  18 22 mph 1015.9mb 81f 80f
10:20am  -   -   -  20 22 mph 1015.9mb 81f 80f
10:10am  -   -   -  18 22 mph 1015.9mb 81f 80f
10:00am  -   -   -  18 20 mph 1016mb 81f 80f
9:50am 2.5ft 4s 4s 18 20 mph 1016.3mb 81f 80f
9:40am 2.5ft  -  4s 16 20 mph 1016.4mb 81f 80f
9:30am  -   -   -  16 18 mph 1016.4mb 81f 80f